ONEWEB-0145

Last updated on Mon Jan 18 2021 00:02:03 GMT+0000 (Coordinated Universal Time)

1 47291U 20100AK 21017.58334491 -.01466235 00000-0 -73689-1 0 9997 2 47291 87.4369 29.0046 0013890 139.1491 79.3686 15.20220857 1868

Satellite not in orbit